sat.trackr.live / text

‹ back to catalog

STARLINK-33910

NORAD 63916 · 2025-095AC

PAYLOAD ACTIVE UNKNOWN

§ Identity

Operator
Country
US
Launch date
2025-05-10
Launch site
AFETR
Launch vehicle
Mass (kg)
RCS (m²)

Purposes: comms

External: N2YO · Heavens-Above · Gunter

§ Orbital elements

Epoch: 2026-09-19T10:34:13.417248Z

Period
94.27 min
Inclination
43.0024°
Eccentricity
0.0000961
Mean motion
15.27576126 rev/d
Perigee alt
482.4 km
Apogee alt
483.7 km
Semi-major
6,861.2 km
B*
4.1712e-4
RAAN
161.6521°
Arg perigee
282.7691°
Mean anomaly
77.3053°
Rev number
7,741

§ Raw data

STARLINK-339101 63916U 25095AC  26262.44043307  .00011232  00000+0  41712-3 0  99952 63916  43.0024 161.6521 0000961 282.7691  77.3053 15.27576126 77419

JSON: /api/v1/satellites/63916 · /tle

For live sub-satellite position, see the globe view (requires WebGL).

§ Visibility from observer

Set your observer location to see the next 7 days of passes ≥ 10°. The values pass through the URL so the page stays shareable.

No JS? Fill the form by hand. The geolocation button needs JavaScript.